Location: Stara Lesna
(49.1528°N, 20.2911°E)
Time: 08:31:31
(UTC+02:00)

Cosmos 1340 - Pass Details

Date: 21 September 2019
Orbit: 502 x 506 km, 81.2° (Epoch: 16 October)

Event Time Altitude Azimuth Distance (km) Brightness Sun altitude
Rises 04:59:08 0° 343° (NNW) 2,623 6.3 -14.3°
Reaches altitude 10° 05:01:19 10° 337° (NNW) 1,732 5.3 -14.0°
Maximum altitude 05:04:58 47° 264° (W) 684 2.9 -13.4°
Drops below altitude 10° 05:08:35 10° 190° (S) 1,715 5.1 -12.8°
Sets 05:10:44 0° 184° (S) 2,593 6.1 -12.5°
